Regional Weather Roundup
Issued by NWS

Home | Current Version | Previous Version | Graphics & Text | Print | Product List | Glossary On
Versions: 1 2 3 4 5 6 7 8 9 10 11 12 13 14 15 16 17 18 19 20 21 22 23 24 25 26 27 28 29 30 31 32 33 34 35 36 37 38 39 40 41 42 43 44 45 46 47 48 49 50
000
ASUS43 KTOP 281359
RWRKS

WEATHER ROUNDUP FOR KANSAS
NATIONAL WEATHER SERVICE GOODLAND KS
800 AM CST SUN DEC 28 2014

NOTE:  "FAIR" INDICATES FEW OR NO CLOUDS BELOW 12,000 FEET WITH NO
SIGNIFICANT WEATHER AND/OR OBSTRUCTIONS TO VISIBILITY.

KSZ001>006-013>018-027>032-041>047-281500-
NORTHWEST KANSAS

CITY           SKY/WX    TMP DP  RH WIND       PRES   REMARKS
GOODLAND       MOCLDY    15   9  76 SW7       30.00F
HAYS           CLEAR     12   1  62 CALM      30.13F
HILL CITY      PTCLDY     8   4  83 W3        30.12S
RUSSELL        CLEAR     12  10  92 SW6       30.14S
$$

KSZ061>065-074>080-084>089-281500-
SOUTHWEST KANSAS

CITY           SKY/WX    TMP DP  RH WIND       PRES   REMARKS
DODGE CITY     CLEAR     14   9  80 SW7       30.11F
ELKHART          N/A     15   7  71 W6          N/A
GARDEN CITY    PTCLDY    12   9  87 S8        30.07F
GREAT BEND     CLEAR     12   7  79 SW6       30.16S
LIBERAL        CLEAR     12   7  79 S5        30.10S
$$

KSZ066>073-081>083-090>101-281500-
SOUTHEAST KANSAS

CITY           SKY/WX    TMP DP  RH WIND       PRES   REMARKS
CHANUTE        PTCLDY    20  17  88 NW3       30.25R
COFFEYVILLE    MOCLDY    21  18  88 S5        30.28R
HUTCHINSON     CLEAR     13   9  84 SE6       30.21R
MEDICINE LODGE   N/A     13   9  84 CALM      30.20R
NEWTON         CLEAR     18  10  73 S6        30.22S
PARSONS        MOCLDY    18  16  92 CALM      30.28R
WICHITA INTL   PTCLDY    17  12  80 CALM      30.21F
WICHITA JABRA  CLEAR     18  14  84 SW3       30.21F
WINFIELD       CLEAR     17  15  92 CALM      30.24R
$$

KSZ007>012-019>026-033>040-048>060-102>105-281500-
NORTHEAST KANSAS

CITY           SKY/WX    TMP DP  RH WIND       PRES   REMARKS
CONCORDIA      CLEAR     17  13  84 SW9       30.16S
EMPORIA        CLEAR     15  12  88 S6        30.22R
LAWRENCE       CLEAR     12   9  87 CALM      30.24R
MANHATTAN      CLEAR     15  12  88 SW3       30.21R
OLATHE IND     PTCLDY    16  13  88 S5        30.23R
OLATHE EXE     PTCLDY    18  17  96 S3        30.22R
SALINA         CLEAR     18  13  80 CALM      30.20R
TOPEKA BILLARD CLEAR     18  15  88 CALM      30.24R
TOPEKA FORBES  CLEAR     16  11  80 CALM      30.22R
$$


USA.gov is the U.S. government's official web portal to all federal, state and local government web resources and services.